(°F)
35°
35°
35°
35°
35°
34°
34°
(°F)
29°
29°
29°
29°
30°
29°
28°
NE
NE
NE
NE
NNE
NNE
NNE
(mph)
4-12
4-12
4-11
3-11
3-10
3-10
3-9
(in)
0
0
0
0
0
0
0
(%)
0
0
0
0
0
0
0

Sun elevation

/ -16.9°
sun-icon
UV 1
07:21
19:19
Waning gibbous moon (253°)
21:32
14:35

METAR for 55.03°N 82.6°E (UNNT)

Time Conditions Temperature/
Dewpoint
Wind Visibility Weather Clouds Pressure Change Raw
VFR 35.6°F / 33.8°F 20º 2kt >10km - Clouds and Visibility OK 1024 No Significant change. Runway 07: Clear and dry, 51-100% contamination with <1mm, friction coefficient 0.70. Runway 34: deposit not reported, . UNNT 271330Z 02001MPS CAVOK 02/01 Q1024 R07/090070 R34/////// NOSIG RMK QFE758/1011
VFR 37.4°F / 33.8°F variable 0kt >10km - Clouds and Visibility OK 1024 No Significant change. Runway 07: Clear and dry, 51-100% contamination with <1mm, friction coefficient 0.70. Runway 34: deposit not reported, . UNNT 271300Z 00000MPS CAVOK 03/01 Q1024 R07/090070 R34/////// NOSIG RMK QFE758/1011
VFR 42.8°F / 35.6°F variable 0kt >10km - Clouds and Visibility OK 1024 No Significant change. Runway 07: Clear and dry, 51-100% contamination with <1mm, friction coefficient 0.70. Runway 34: deposit not reported, . UNNT 271230Z 00000MPS CAVOK 06/02 Q1024 R07/090070 R34/////// NOSIG RMK QFE758/1011
VFR 42.8°F / 33.8°F 140º 2kt >10km - Clouds and Visibility OK 1024 No Significant change. Runway 07: Clear and dry, 51-100% contamination with <1mm, friction coefficient 0.70. Runway 34: deposit not reported, . UNNT 271200Z 14001MPS CAVOK 06/01 Q1024 R07/090070 R34/////// NOSIG RMK QFE758/1011
VFR 44.6°F / 33.8°F 70º 4kt >10km - Clouds and Visibility OK 1025 No Significant change. Runway 07: Clear and dry, 51-100% contamination with <1mm, friction coefficient 0.70. Runway 34: deposit not reported, . UNNT 271130Z 07002MPS CAVOK 07/01 Q1025 R07/090070 R34/////// NOSIG RMK QFE758/1011
VFR 46.4°F / 33.8°F variable 2kt >10km - Scattered Clouds 3600ft 1025 No Significant change. Runway 07: Clear and dry, 51-100% contamination with <1mm, friction coefficient 0.70. Runway 34: deposit not reported, . UNNT 271100Z VRB01MPS 9999 SCT036 08/01 Q1025 R07/090070 R34/////// NOSIG RMK QFE758/1011
VFR 48.2°F / 33.8°F 140º 4kt >10km - Scattered Clouds 3300ft 1025 No Significant change. Runway 07: Clear and dry, 51-100% contamination with <1mm, friction coefficient 0.70. Runway 34: deposit not reported, . UNNT 271030Z 14002MPS 9999 SCT033CB 09/01 Q1025 R07/090070 R34/////// NOSIG RMK QFE758/1011
VFR 46.4°F / 33.8°F 130º 6kt >10km - Broken Clouds 4900ft 1025 No Significant change. Runway 07: Clear and dry, 51-100% contamination with <1mm, friction coefficient 0.70. Runway 34: deposit not reported, . UNNT 271000Z 13003MPS 9999 BKN049CB 08/01 Q1025 R07/090070 R34/////// NOSIG RMK QFE758/1011
VFR 48.2°F / 33.8°F 110º 4kt >10km - Broken Clouds 4000ft 1025 No Significant change. Runway 25: Clear and dry, 51-100% contamination with <1mm, friction coefficient 0.70. Runway 34: deposit not reported, . UNNT 270930Z 11002MPS 9999 BKN040CB 09/01 Q1025 R25/090070 R34/////// NOSIG RMK QFE758/1011
MVFR 48.2°F / 35.6°F 120º variable 080º to 170º 6kt >10km - Broken Clouds 3000ft 1025 No Significant change. Runway 25: Clear and dry, 51-100% contamination with <1mm, friction coefficient 0.70. Runway 34: deposit not reported, . UNNT 270900Z 12003MPS 080V170 9999 BKN030CB 09/02 Q1025 R25/090070 R34/////// NOSIG RMK QFE758/1011
VFR 48.2°F / 35.6°F 110º variable 070º to 150º 6kt >10km - Broken Clouds 3100ft 1025 No Significant change. Runway 25: Clear and dry, 51-100% contamination with <1mm, friction coefficient 0.70. Runway 34: deposit not reported, . UNNT 270830Z 11003MPS 070V150 9999 BKN031 09/02 Q1025 R25/090070 R34/////// NOSIG RMK QFE758/1011
MVFR 44.6°F / 35.6°F 60º 6kt >10km - Broken Clouds 3000ft 1025 No Significant change. Runway 25: Wet or puddles, 51-100% contamination with 1mm, friction coefficient 0.60. Runway 34: deposit not reported, . UNNT 270800Z 06003MPS 9999 BKN030 07/02 Q1025 R25/290160 R34/////// NOSIG RMK QFE758/1011
MVFR 46.4°F / 37.4°F 50º variable 010º to 080º 6kt >10km - Broken Clouds 2400ft 1025 No Significant change. Runway 25: Wet or puddles, 51-100% contamination with 1mm, friction coefficient 0.60. Runway 34: deposit not reported, . UNNT 270730Z 05003MPS 010V080 9999 BKN024 08/03 Q1025 R25/290160 R34/////// NOSIG RMK QFE759/1012
MVFR 46.4°F / 37.4°F 50º 6kt >10km - Broken Clouds 2500ft 1025 No Significant change. Runway 25: Wet or puddles, 51-100% contamination with 1mm, friction coefficient 0.60. Runway 34: deposit not reported, . UNNT 270700Z 05003MPS 9999 BKN025CB 08/03 Q1025 R25/290160 R34/////// NOSIG RMK QFE759/1012
MVFR 44.6°F / 37.4°F 30º variable 360º to 070º 6kt >10km - Broken Clouds 2200ft 1025 No Significant change. Runway 25: Wet or puddles, 51-100% contamination with 1mm, friction coefficient 0.60. Runway 34: deposit not reported, . UNNT 270630Z 03003MPS 360V070 9999 BKN022CB 07/03 Q1025 R25/290160 R34/////// NOSIG RMK QFE759/1012
MVFR 42.8°F / 35.6°F 50º 8kt >10km - Broken Clouds 1800ft 1025 No Significant change. Runway 25: Wet or puddles, 51-100% contamination with 1mm, friction coefficient 0.60. Runway 34: deposit not reported, . UNNT 270600Z 05004MPS 9999 BKN018CB 06/02 Q1025 R25/290160 R34/////// NOSIG RMK QFE759/1012
MVFR 42.8°F / 37.4°F 30º 6kt >10km - Overcast 1700ft 1025 No Significant change. Runway 25: Wet or puddles, 51-100% contamination with 1mm, friction coefficient 0.60. Runway 34: deposit not reported, . UNNT 270530Z 03003MPS 9999 OVC017CB 06/03 Q1025 R25/290160 R34/////// NOSIG RMK QFE759/1012
MVFR 42.8°F / 37.4°F 20º 6kt >10km - Overcast 1200ft 1025 No Significant change. Runway 25: Wet or puddles, 51-100% contamination with 1mm, friction coefficient 0.60. Runway 34: deposit not reported, . UNNT 270500Z 02003MPS 9999 OVC012CB 06/03 Q1025 R25/290160 R34/////// NOSIG RMK QFE759/1012
MVFR 41°F / 37.4°F 40º 6kt >10km - Overcast 1400ft 1025 No Significant change. Runway 25: Wet or puddles, 51-100% contamination with 1mm, friction coefficient 0.60. Runway 34: deposit not reported, . UNNT 270430Z 04003MPS 9999 OVC014CB 05/03 Q1025 R25/290160 R34/////// NOSIG RMK QFE758/1011
MVFR 41°F / 37.4°F 30º 8kt >10km - Overcast 1200ft 1025 No Significant change. Runway 25: Wet or puddles, 51-100% contamination with 1mm, friction coefficient 0.60. Runway 34: deposit not reported, . UNNT 270400Z 03004MPS 9999 OVC012 05/03 Q1025 R25/290160 R34/////// NOSIG RMK QFE758/1011
MVFR 41°F / 37.4°F 40º 8kt >10km - Overcast 1000ft 1024 No Significant change. Runway 25: Wet or puddles, 51-100% contamination with 1mm, friction coefficient 0.60. Runway 34: deposit not reported, . UNNT 270330Z 04004MPS 9999 OVC010 05/03 Q1024 R25/290160 R34/////// NOSIG RMK QFE758/1011
IFR 39.2°F / 37.4°F 30º 6kt >10km - Overcast 900ft 1024 No Significant change. Runway 25: Wet or puddles, 51-100% contamination with 1mm, friction coefficient 0.60. Runway 34: deposit not reported, . UNNT 270300Z 03003MPS 9999 OVC009 04/03 Q1024 R25/290160 R34/////// NOSIG RMK QFE758/1011
IFR 39.2°F / 37.4°F 20º 8kt >10km - Overcast 800ft 1024 No Significant change. Runway 25: Wet or puddles, 51-100% contamination with 1mm, friction coefficient 0.60. Runway 34: deposit not reported, . UNNT 270230Z 02004MPS 9999 OVC008 04/03 Q1024 R25/290160 R34/////// NOSIG RMK QFE758/1011
IFR 39.2°F / 37.4°F 20º 8kt >10km - Overcast 800ft 1024 No Significant change. Runway 25: Wet or puddles, 51-100% contamination with 1mm, friction coefficient 0.60. Runway 34: deposit not reported, . UNNT 270200Z 02004MPS 9999 OVC008 04/03 Q1024 R25/290160 R34/////// NOSIG RMK QFE758/1011

VFR

35.6°F / 33.8°F

[More]
Wind 20º 2kt
Visibility >10km
Weather -
Clouds Clouds and Visibility OK
Pressure 1024
Change No Significant change. Runway 07: Clear and dry, 51-100% contamination with <1mm, friction coefficient 0.70. Runway 34: deposit not reported, .
Raw UNNT 271330Z 02001MPS CAVOK 02/01 Q1024 R07/090070 R34/////// NOSIG RMK QFE758/1011

VFR

37.4°F / 33.8°F

[More]
Wind variable 0kt
Visibility >10km
Weather -
Clouds Clouds and Visibility OK
Pressure 1024
Change No Significant change. Runway 07: Clear and dry, 51-100% contamination with <1mm, friction coefficient 0.70. Runway 34: deposit not reported, .
Raw UNNT 271300Z 00000MPS CAVOK 03/01 Q1024 R07/090070 R34/////// NOSIG RMK QFE758/1011

VFR

42.8°F / 35.6°F

[More]
Wind variable 0kt
Visibility >10km
Weather -
Clouds Clouds and Visibility OK
Pressure 1024
Change No Significant change. Runway 07: Clear and dry, 51-100% contamination with <1mm, friction coefficient 0.70. Runway 34: deposit not reported, .
Raw UNNT 271230Z 00000MPS CAVOK 06/02 Q1024 R07/090070 R34/////// NOSIG RMK QFE758/1011

VFR

42.8°F / 33.8°F

[More]
Wind 140º 2kt
Visibility >10km
Weather -
Clouds Clouds and Visibility OK
Pressure 1024
Change No Significant change. Runway 07: Clear and dry, 51-100% contamination with <1mm, friction coefficient 0.70. Runway 34: deposit not reported, .
Raw UNNT 271200Z 14001MPS CAVOK 06/01 Q1024 R07/090070 R34/////// NOSIG RMK QFE758/1011

VFR

44.6°F / 33.8°F

[More]
Wind 70º 4kt
Visibility >10km
Weather -
Clouds Clouds and Visibility OK
Pressure 1025
Change No Significant change. Runway 07: Clear and dry, 51-100% contamination with <1mm, friction coefficient 0.70. Runway 34: deposit not reported, .
Raw UNNT 271130Z 07002MPS CAVOK 07/01 Q1025 R07/090070 R34/////// NOSIG RMK QFE758/1011

VFR

46.4°F / 33.8°F

[More]
Wind variable 2kt
Visibility >10km
Weather -
Clouds Scattered Clouds 3600ft
Pressure 1025
Change No Significant change. Runway 07: Clear and dry, 51-100% contamination with <1mm, friction coefficient 0.70. Runway 34: deposit not reported, .
Raw UNNT 271100Z VRB01MPS 9999 SCT036 08/01 Q1025 R07/090070 R34/////// NOSIG RMK QFE758/1011

VFR

48.2°F / 33.8°F

[More]
Wind 140º 4kt
Visibility >10km
Weather -
Clouds Scattered Clouds 3300ft
Pressure 1025
Change No Significant change. Runway 07: Clear and dry, 51-100% contamination with <1mm, friction coefficient 0.70. Runway 34: deposit not reported, .
Raw UNNT 271030Z 14002MPS 9999 SCT033CB 09/01 Q1025 R07/090070 R34/////// NOSIG RMK QFE758/1011

VFR

46.4°F / 33.8°F

[More]
Wind 130º 6kt
Visibility >10km
Weather -
Clouds Broken Clouds 4900ft
Pressure 1025
Change No Significant change. Runway 07: Clear and dry, 51-100% contamination with <1mm, friction coefficient 0.70. Runway 34: deposit not reported, .
Raw UNNT 271000Z 13003MPS 9999 BKN049CB 08/01 Q1025 R07/090070 R34/////// NOSIG RMK QFE758/1011

VFR

48.2°F / 33.8°F

[More]
Wind 110º 4kt
Visibility >10km
Weather -
Clouds Broken Clouds 4000ft
Pressure 1025
Change No Significant change. Runway 25: Clear and dry, 51-100% contamination with <1mm, friction coefficient 0.70. Runway 34: deposit not reported, .
Raw UNNT 270930Z 11002MPS 9999 BKN040CB 09/01 Q1025 R25/090070 R34/////// NOSIG RMK QFE758/1011

MVFR

48.2°F / 35.6°F

[More]
Wind 120º variable 080º to 170º 6kt
Visibility >10km
Weather -
Clouds Broken Clouds 3000ft
Pressure 1025
Change No Significant change. Runway 25: Clear and dry, 51-100% contamination with <1mm, friction coefficient 0.70. Runway 34: deposit not reported, .
Raw UNNT 270900Z 12003MPS 080V170 9999 BKN030CB 09/02 Q1025 R25/090070 R34/////// NOSIG RMK QFE758/1011

VFR

48.2°F / 35.6°F

[More]
Wind 110º variable 070º to 150º 6kt
Visibility >10km
Weather -
Clouds Broken Clouds 3100ft
Pressure 1025
Change No Significant change. Runway 25: Clear and dry, 51-100% contamination with <1mm, friction coefficient 0.70. Runway 34: deposit not reported, .
Raw UNNT 270830Z 11003MPS 070V150 9999 BKN031 09/02 Q1025 R25/090070 R34/////// NOSIG RMK QFE758/1011

MVFR

44.6°F / 35.6°F

[More]
Wind 60º 6kt
Visibility >10km
Weather -
Clouds Broken Clouds 3000ft
Pressure 1025
Change No Significant change. Runway 25: Wet or puddles, 51-100% contamination with 1mm, friction coefficient 0.60. Runway 34: deposit not reported, .
Raw UNNT 270800Z 06003MPS 9999 BKN030 07/02 Q1025 R25/290160 R34/////// NOSIG RMK QFE758/1011

MVFR

46.4°F / 37.4°F

[More]
Wind 50º variable 010º to 080º 6kt
Visibility >10km
Weather -
Clouds Broken Clouds 2400ft
Pressure 1025
Change No Significant change. Runway 25: Wet or puddles, 51-100% contamination with 1mm, friction coefficient 0.60. Runway 34: deposit not reported, .
Raw UNNT 270730Z 05003MPS 010V080 9999 BKN024 08/03 Q1025 R25/290160 R34/////// NOSIG RMK QFE759/1012

MVFR

46.4°F / 37.4°F

[More]
Wind 50º 6kt
Visibility >10km
Weather -
Clouds Broken Clouds 2500ft
Pressure 1025
Change No Significant change. Runway 25: Wet or puddles, 51-100% contamination with 1mm, friction coefficient 0.60. Runway 34: deposit not reported, .
Raw UNNT 270700Z 05003MPS 9999 BKN025CB 08/03 Q1025 R25/290160 R34/////// NOSIG RMK QFE759/1012

MVFR

44.6°F / 37.4°F

[More]
Wind 30º variable 360º to 070º 6kt
Visibility >10km
Weather -
Clouds Broken Clouds 2200ft
Pressure 1025
Change No Significant change. Runway 25: Wet or puddles, 51-100% contamination with 1mm, friction coefficient 0.60. Runway 34: deposit not reported, .
Raw UNNT 270630Z 03003MPS 360V070 9999 BKN022CB 07/03 Q1025 R25/290160 R34/////// NOSIG RMK QFE759/1012

MVFR

42.8°F / 35.6°F

[More]
Wind 50º 8kt
Visibility >10km
Weather -
Clouds Broken Clouds 1800ft
Pressure 1025
Change No Significant change. Runway 25: Wet or puddles, 51-100% contamination with 1mm, friction coefficient 0.60. Runway 34: deposit not reported, .
Raw UNNT 270600Z 05004MPS 9999 BKN018CB 06/02 Q1025 R25/290160 R34/////// NOSIG RMK QFE759/1012

MVFR

42.8°F / 37.4°F

[More]
Wind 30º 6kt
Visibility >10km
Weather -
Clouds Overcast 1700ft
Pressure 1025
Change No Significant change. Runway 25: Wet or puddles, 51-100% contamination with 1mm, friction coefficient 0.60. Runway 34: deposit not reported, .
Raw UNNT 270530Z 03003MPS 9999 OVC017CB 06/03 Q1025 R25/290160 R34/////// NOSIG RMK QFE759/1012

MVFR

42.8°F / 37.4°F

[More]
Wind 20º 6kt
Visibility >10km
Weather -
Clouds Overcast 1200ft
Pressure 1025
Change No Significant change. Runway 25: Wet or puddles, 51-100% contamination with 1mm, friction coefficient 0.60. Runway 34: deposit not reported, .
Raw UNNT 270500Z 02003MPS 9999 OVC012CB 06/03 Q1025 R25/290160 R34/////// NOSIG RMK QFE759/1012

MVFR

41°F / 37.4°F

[More]
Wind 40º 6kt
Visibility >10km
Weather -
Clouds Overcast 1400ft
Pressure 1025
Change No Significant change. Runway 25: Wet or puddles, 51-100% contamination with 1mm, friction coefficient 0.60. Runway 34: deposit not reported, .
Raw UNNT 270430Z 04003MPS 9999 OVC014CB 05/03 Q1025 R25/290160 R34/////// NOSIG RMK QFE758/1011

MVFR

41°F / 37.4°F

[More]
Wind 30º 8kt
Visibility >10km
Weather -
Clouds Overcast 1200ft
Pressure 1025
Change No Significant change. Runway 25: Wet or puddles, 51-100% contamination with 1mm, friction coefficient 0.60. Runway 34: deposit not reported, .
Raw UNNT 270400Z 03004MPS 9999 OVC012 05/03 Q1025 R25/290160 R34/////// NOSIG RMK QFE758/1011

MVFR

41°F / 37.4°F

[More]
Wind 40º 8kt
Visibility >10km
Weather -
Clouds Overcast 1000ft
Pressure 1024
Change No Significant change. Runway 25: Wet or puddles, 51-100% contamination with 1mm, friction coefficient 0.60. Runway 34: deposit not reported, .
Raw UNNT 270330Z 04004MPS 9999 OVC010 05/03 Q1024 R25/290160 R34/////// NOSIG RMK QFE758/1011

IFR

39.2°F / 37.4°F

[More]
Wind 30º 6kt
Visibility >10km
Weather -
Clouds Overcast 900ft
Pressure 1024
Change No Significant change. Runway 25: Wet or puddles, 51-100% contamination with 1mm, friction coefficient 0.60. Runway 34: deposit not reported, .
Raw UNNT 270300Z 03003MPS 9999 OVC009 04/03 Q1024 R25/290160 R34/////// NOSIG RMK QFE758/1011

IFR

39.2°F / 37.4°F

[More]
Wind 20º 8kt
Visibility >10km
Weather -
Clouds Overcast 800ft
Pressure 1024
Change No Significant change. Runway 25: Wet or puddles, 51-100% contamination with 1mm, friction coefficient 0.60. Runway 34: deposit not reported, .
Raw UNNT 270230Z 02004MPS 9999 OVC008 04/03 Q1024 R25/290160 R34/////// NOSIG RMK QFE758/1011

IFR

39.2°F / 37.4°F

[More]
Wind 20º 8kt
Visibility >10km
Weather -
Clouds Overcast 800ft
Pressure 1024
Change No Significant change. Runway 25: Wet or puddles, 51-100% contamination with 1mm, friction coefficient 0.60. Runway 34: deposit not reported, .
Raw UNNT 270200Z 02004MPS 9999 OVC008 04/03 Q1024 R25/290160 R34/////// NOSIG RMK QFE758/1011

TAF for 55.03°N 82.6°E (UNNT)

From till


From till Wind 40º 6kt. Gust 16kt. Visibility 8000m. Broken Clouds 4000ft.
Temporarly from till Visibility 595.456m. Fog . Scattered Clouds 200ft. Broken Clouds 4000ft.

Raw: TAF UNNT 271100Z 2712/2812 04003G08MPS 8000 BKN040CB TEMPO 2721/2803 0600 FG SCT002 BKN040CB

Current satellite and rain images for 55.03°N 82.6°E

The location marker is placed on 55.03°N 82.6°E. [More]

The real-time satellite image combines visible light during daytime with infrared radiation during nighttime. At night, the image is not dark as infrared radiation can detect temperature differences. Unfortunately, low clouds and fog are difficult to distinguish from ground temperatures and thus can be almost invisible during the night. Meteosat satellite images for Europe are updated in real-time every 5 minutes. GOES-16/GOES-17 (North & South America) and Himawari (Asia) images update every 10 minutes.

Copyright 2021 EUMETSAT / meteoblue. / Copyright 2021 meteoblue

Radar and precipitation nowcast for 55.03°N 82.6°E

Drizzle
Light
Moderate
Heavy
Very Heavy
Hail

The location marker is placed on 55.03°N 82.6°E. This animation shows the precipitation radar for the last hour, as well as a 1h forecast. Drizzle or light snow fall might be invisible for the radar. Precipitation intensity is colour coded, ranging from light blue to orange.